Total_Precipitation_Accumulation
0.01 0.02 0.04 0.05 0.07 0.12 0.17 0.22 0.33 0.38 0.26 0.29 0.46 0.66 0.88 1.03 1.18 1.23 1.38 1.36 1.56 1.82 1.98 2.38 2.76 3.23 3.68 4.19 4.95 5.65 6.25 6.33 6.20 5.83 5.45 5.21 4.76 4.45 4.17 3.91 3.71 3.47 3.18 3.06
0.02 0.04 0.04 0.05 0.06 0.08 0.14 0.22 0.36 0.38 0.26 0.30 0.50 0.74 1.02 1.09 1.06 1.06 1.28 1.35 1.42 1.62 1.92 2.30 2.84 3.16 3.52 4.05 4.62 5.06 5.15 4.92 4.85 4.89 4.79 4.54 4.55 4.37 4.30 4.12 3.97 3.44 3.23 3.11
0.05 0.06 0.04 0.05 0.07 0.08 0.13 0.21 0.27 0.31 0.32 0.39 0.57 0.96 1.24 1.24 1.04 0.96 0.99 1.09 1.20 1.33 1.54 1.90 2.49 2.83 3.03 3.53 3.87 3.91 3.85 3.80 3.94 4.02 3.96 4.00 4.26 4.33 4.39 4.32 4.08 3.65 3.42 3.25
0.03 0.04 0.05 0.06 0.09 0.09 0.14 0.14 0.16 0.20 0.31 0.60 0.69 1.19 1.51 1.59 1.40 1.11 0.99 1.10 1.16 1.25 1.30 1.61 1.95 2.21 2.50 2.77 2.89 2.88 2.98 3.12 3.26 3.36 3.38 3.25 3.28 3.56 3.82 4.04 4.12 3.98 3.70 3.44
0.04 0.05 0.06 0.07 0.08 0.10 0.10 0.10 0.13 0.19 0.30 0.49 0.62 0.93 1.44 1.77 1.78 1.37 1.09 1.00 0.96 1.09 1.33 1.54 1.67 1.86 1.97 2.03 2.14 2.18 2.48 2.91 3.11 3.24 3.39 3.29 2.96 2.97 3.05 3.21 3.40 3.39 3.38 3.19
0.05 0.06 0.06 0.06 0.07 0.09 0.10 0.16 0.25 0.38 0.57 0.85 0.76 0.85 1.32 1.57 1.65 1.30 1.07 0.97 0.86 0.86 1.04 1.27 1.56 1.68 1.66 1.63 1.76 1.96 2.28 2.79 3.09 3.23 3.18 3.16 3.08 3.07 2.99 2.98 3.07 2.96 2.92 2.85
0.16 0.14 0.10 0.07 0.08 0.10 0.12 0.22 0.62 1.07 1.40 1.44 0.87 0.84 1.08 1.11 1.05 1.04 0.90 0.85 0.89 0.82 0.81 0.82 1.03 1.30 1.28 1.25 1.43 1.69 1.89 2.30 2.61 2.82 2.77 2.71 2.84 2.93 2.78 2.63 2.59 2.55 2.40 2.33
0.19 0.23 0.14 0.10 0.09 0.10 0.13 0.18 0.47 0.81 1.00 1.11 0.95 1.29 1.37 1.02 0.85 0.76 0.64 0.63 0.72 0.67 0.62 0.60 0.67 0.85 1.09 1.12 1.21 1.33 1.57 1.85 2.11 2.28 2.41 2.51 2.69 2.77 2.68 2.83 2.58 2.45 2.14 2.00
0.08 0.11 0.10 0.10 0.10 0.12 0.15 0.15 0.22 0.35 0.52 0.82 1.11 1.32 1.27 1.05 0.99 0.78 0.60 0.54 0.55 0.54 0.53 0.53 0.60 0.80 0.87 0.90 1.00 1.15 1.36 1.53 1.75 1.99 2.20 2.27 2.26 2.27 2.41 2.56 2.50 2.34 2.26 2.02
0.05 0.06 0.08 0.10 0.11 0.13 0.13 0.14 0.17 0.27 0.48 0.70 1.01 1.40 1.47 1.33 1.15 0.96 0.84 0.64 0.54 0.56 0.58 0.55 0.56 0.65 0.72 0.77 0.88 1.09 1.29 1.31 1.54 1.93 2.20 2.15 2.19 2.13 2.28 2.26 2.22 2.25 2.17 2.12
0.04 0.05 0.07 0.11 0.14 0.17 0.18 0.15 0.15 0.20 0.25 0.42 0.87 1.16 1.07 1.10 1.04 0.96 0.83 0.71 0.67 0.65 0.63 0.61 0.60 0.60 0.72 0.65 0.73 0.91 1.05 1.20 1.50 1.84 2.16 2.29 2.21 2.20 2.26 2.09 2.03 2.13 2.13 2.12
0.05 0.05 0.08 0.13 0.19 0.19 0.18 0.18 0.18 0.24 0.24 0.28 0.48 0.80 0.66 0.74 0.85 0.87 0.70 0.63 0.61 0.53 0.51 0.48 0.47 0.54 0.52 0.52 0.61 0.93 1.27 1.61 1.79 2.10 2.46 2.63 2.43 2.21 2.07 1.89 1.86 1.97 2.15 2.19
0.05 0.06 0.14 0.32 0.35 0.25 0.19 0.16 0.17 0.19 0.19 0.23 0.47 0.74 0.61 0.66 0.79 0.77 0.70 0.63 0.62 0.64 0.53 0.51 0.47 0.55 0.55 0.53 0.55 0.69 0.87 1.26 1.59 1.95 2.34 2.40 2.16 1.94 1.89 1.86 1.87 1.97 2.14 2.16
0.06 0.06 0.10 0.28 0.34 0.34 0.28 0.21 0.19 0.16 0.18 0.23 0.33 0.61 0.63 0.67 0.64 0.67 0.63 0.60 0.69 0.79 0.66 0.59 0.57 0.56 0.56 0.56 0.55 0.65 0.76 0.86 1.09 1.56 1.90 1.90 1.75 1.70 1.74 1.75 1.78 1.79 1.88 1.93
0.07 0.07 0.05 0.07 0.16 0.23 0.25 0.23 0.20 0.16 0.15 0.27 0.32 0.42 0.52 0.69 0.68 0.69 0.66 0.60 0.58 0.69 0.66 0.61 0.61 0.68 0.70 0.75 0.77 0.77 0.80 0.83 1.03 1.52 1.75 1.71 1.64 1.67 1.64 1.61 1.71 1.77 1.83 1.87
0.10 0.10 0.10 0.11 0.14 0.16 0.17 0.20 0.19 0.14 0.12 0.12 0.18 0.35 0.40 0.64 0.78 0.77 0.78 0.75 0.69 0.69 0.65 0.62 0.55 0.65 0.76 0.83 0.86 0.87 0.93 0.99 1.12 1.45 1.72 1.68 1.60 1.58 1.50 1.56 1.67 1.78 1.87 2.05
0.16 0.15 0.15 0.16 0.19 0.18 0.25 0.21 0.17 0.16 0.15 0.16 0.25 0.39 0.41 0.49 0.65 0.77 0.80 0.76 0.68 0.70 0.63 0.63 0.67 0.75 0.95 0.89 0.92 1.00 0.93 0.99 1.17 1.49 1.72 1.76 1.67 1.63 1.59 1.54 1.70 1.88 2.08 2.26
0.29 0.27 0.25 0.22 0.26 0.37 0.29 0.21 0.22 0.25 0.29 0.30 0.33 0.38 0.41 0.54 0.63 0.76 0.93 0.79 0.65 0.68 0.71 0.79 0.77 0.82 0.91 0.91 0.96 1.03 1.04 1.07 1.22 1.45 1.69 1.79 1.77 1.81 1.88 1.90 1.95 2.13 2.36 2.51
0.34 0.39 0.36 0.31 0.35 0.42 0.38 0.31 0.35 0.39 0.45 0.47 0.50 0.44 0.49 0.56 0.69 0.85 0.79 0.77 0.82 0.83 0.82 0.88 0.97 1.01 1.09 1.09 1.04 1.10 1.25 1.28 1.35 1.42 1.65 1.80 1.87 1.97 2.00 2.07 2.31 2.49 2.65 2.67
0.37 0.46 0.50 0.45 0.53 0.61 0.60 0.44 0.38 0.47 0.79 0.62 0.64 0.63 0.57 0.60 0.87 1.02 0.85 0.77 0.77 0.88 0.98 0.98 1.05 1.11 1.14 1.18 1.24 1.29 1.42 1.58 1.70 1.77 1.86 2.09 2.30 2.48 2.56 2.63 2.71 2.77 2.87 2.80
0.66 0.63 0.61 0.66 0.79 0.73 0.58 0.51 0.46 0.87 1.20 0.89 0.85 0.83 0.74 0.85 0.97 0.97 0.84 0.79 0.75 0.79 0.94 1.02 1.06 1.16 1.24 1.25 1.40 1.66 1.79 1.88 2.03 2.20 2.25 2.45 2.79 2.98 2.97 3.04 2.95 2.87 2.85 2.87
0.89 0.85 0.85 0.90 1.14 1.21 0.67 0.62 0.97 1.22 1.02 1.04 1.06 1.03 0.96 0.94 1.00 1.02 0.99 0.84 0.79 0.80 0.88 0.99 1.08 1.16 1.35 1.60 1.80 2.08 2.24 2.26 2.34 2.49 2.67 2.92 3.18 3.05 2.97 3.14 3.03 3.02 3.08 3.06
0.97 1.02 1.09 1.17 1.39 1.18 0.83 0.95 1.12 1.11 1.08 1.12 1.10 1.05 0.95 0.91 1.07 1.02 0.95 0.92 0.80 0.80 0.87 0.96 1.06 1.24 1.45 1.75 2.14 2.39 2.46 2.60 2.63 2.70 2.86 2.98 3.06 3.19 3.32 3.38 3.25 3.16 3.14 3.08
1.19 1.07 1.25 1.47 1.53 1.28 1.12 1.11 1.07 1.10 1.12 1.08 1.01 0.96 0.97 0.95 0.96 0.96 0.90 0.89 0.85 0.86 0.95 1.00 1.11 1.32 1.63 1.94 2.28 2.43 2.49 2.52 2.53 2.58 2.61 2.73 2.90 3.04 3.15 3.37 3.37 3.23 3.05 2.94
1.40 1.31 1.57 1.96 2.00 1.81 1.66 1.43 1.26 1.22 1.17 1.21 1.17 1.08 1.04 1.01 0.96 0.90 0.90 0.89 0.89 0.91 1.04 1.14 1.25 1.36 1.52 1.78 2.05 2.18 2.34 2.43 2.59 2.63 2.56 2.50 2.52 2.66 2.81 2.93 3.00 2.93 2.88 2.72
1.56 1.61 1.88 2.26 1.97 1.92 2.04 1.76 1.51 1.44 1.43 1.46 1.44 1.40 1.27 1.18 1.11 1.03 0.98 0.92 0.89 0.90 1.01 1.14 1.28 1.45 1.60 1.76 1.95 2.06 2.24 2.40 2.55 2.56 2.45 2.42 2.38 2.45 2.49 2.49 2.44 2.30 2.20 2.04